Archiv-/Tagesdaten

--Timestamp---	Temp	Chill	HIndex	Humid	Dewpt	 Wind 	HiWind	WindDir	Rain 	Barom	Solar	 ET  	 UV 
--------------	----	-----	------	-----	-----	------	------	-------	-----	-----	-----	-----	----
20110407 00:00	12.2	12.2	12.2	76	8.1	3	6	270	0.0	1027.6	0	0.025	0.0
20110407 00:05	12.2	12.2	12.2	76	8.1	3	6	270	0.0	1027.5	0	0.000	0.0
20110407 00:10	12.1	12.1	12.1	76	8.0	3	6	270	0.0	1027.5	0	0.000	0.0
20110407 00:15	12.1	12.1	12.1	76	8.0	3	8	270	0.0	1027.5	0	0.000	0.0
20110407 00:20	11.9	11.9	11.9	76	7.8	2	6	225	0.0	1027.6	0	0.000	0.0
20110407 00:25	11.9	11.9	11.9	76	7.8	2	5	225	0.0	1027.4	0	0.000	0.0
20110407 00:30	11.8	11.8	11.8	77	7.9	2	6	225	0.0	1027.4	0	0.000	0.0
20110407 00:35	11.8	11.8	11.8	77	7.9	3	6	225	0.0	1027.4	0	0.000	0.0
20110407 00:40	11.8	11.8	11.8	77	7.9	5	10	225	0.0	1027.3	0	0.000	0.0
20110407 00:45	11.8	11.8	11.8	77	7.9	8	10	202	0.0	1027.2	0	0.000	0.0
20110407 00:50	11.8	11.8	11.8	77	7.9	6	10	202	0.0	1027.4	0	0.000	0.0
20110407 00:55	11.8	11.8	11.8	76	7.7	5	10	202	0.0	1027.3	0	0.000	0.0
20110407 01:00	11.8	11.8	11.8	77	7.9	5	10	202	0.0	1027.3	0	0.025	0.0
20110407 01:05	11.7	11.7	11.7	77	7.8	6	11	202	0.0	1027.2	0	0.000	0.0
20110407 01:10	11.7	11.7	11.7	77	7.8	6	10	202	0.0	1027.2	0	0.000	0.0
20110407 01:15	11.6	11.6	11.6	77	7.7	6	11	202	0.0	1027.1	0	0.000	0.0
20110407 01:20	11.5	11.5	11.5	77	7.6	6	10	202	0.0	1027.1	0	0.000	0.0
20110407 01:25	11.4	11.4	11.4	78	7.7	5	10	202	0.0	1027.1	0	0.000	0.0
20110407 01:30	11.4	11.4	11.4	78	7.7	3	6	180	0.0	1027.1	0	0.000	0.0
20110407 01:35	11.4	11.4	11.4	78	7.7	3	6	180	0.0	1027.0	0	0.000	0.0
20110407 01:40	11.3	11.3	11.3	78	7.6	3	8	180	0.0	1027.1	0	0.000	0.0
20110407 01:45	11.3	11.3	11.3	78	7.6	3	8	202	0.0	1027.2	0	0.000	0.0
20110407 01:50	11.3	11.3	11.3	78	7.6	5	10	202	0.0	1027.0	0	0.000	0.0
20110407 01:55	11.3	11.3	11.3	78	7.6	5	8	202	0.0	1027.0	0	0.000	0.0
20110407 02:00	11.2	11.2	11.2	78	7.5	5	8	202	0.0	1026.9	0	0.025	0.0
20110407 02:05	11.1	11.1	11.1	79	7.6	5	10	202	0.0	1026.8	0	0.000	0.0
20110407 02:10	11.0	11.0	11.0	79	7.5	5	8	202	0.0	1026.8	0	0.000	0.0
20110407 02:15	10.9	10.9	10.9	79	7.4	5	6	202	0.0	1026.8	0	0.000	0.0
20110407 02:20	10.8	10.8	10.8	79	7.3	5	8	202	0.0	1026.8	0	0.000	0.0
20110407 02:25	10.8	10.8	10.8	79	7.3	3	6	202	0.0	1026.8	0	0.000	0.0
20110407 02:30	10.8	10.8	10.8	79	7.3	3	6	202	0.0	1026.7	622	0.000	0.0
20110407 02:35	10.7	10.7	10.7	80	7.4	3	6	202	0.0	1026.6	0	0.000	0.0
20110407 02:40	10.7	10.7	10.7	80	7.4	3	6	202	0.0	1026.6	0	0.000	0.0
20110407 02:45	10.6	10.6	10.6	80	7.2	5	8	202	0.0	1026.4	0	0.000	0.0
20110407 02:50	10.5	10.5	10.5	80	7.2	6	10	202	0.0	1026.5	0	0.000	0.0
20110407 02:55	10.4	10.4	10.4	80	7.1	5	10	202	0.0	1026.5	0	0.000	0.0
20110407 03:00	10.4	10.4	10.4	80	7.1	6	10	202	0.0	1026.5	0	0.025	0.0
20110407 03:05	10.4	10.4	10.4	80	7.1	6	8	202	0.0	1026.3	0	0.000	0.0
20110407 03:10	10.4	10.4	10.4	80	7.1	5	8	202	0.0	1026.3	0	0.000	0.0
20110407 03:15	10.4	10.4	10.4	80	7.1	5	11	202	0.0	1026.2	0	0.000	0.0
20110407 03:20	10.3	10.3	10.3	80	7.0	6	10	202	0.0	1026.1	0	0.000	0.0
20110407 03:25	10.3	10.3	10.3	80	7.0	5	10	202	0.0	1026.0	0	0.000	0.0
20110407 03:30	10.2	10.2	10.2	80	6.9	3	8	202	0.0	1026.2	0	0.000	0.0
20110407 03:35	10.2	10.2	10.2	80	6.9	6	10	202	0.0	1026.1	0	0.000	0.0
20110407 03:40	10.2	10.2	10.2	80	6.9	6	11	202	0.0	1026.1	0	0.000	0.0
20110407 03:45	10.1	10.1	10.1	80	6.8	5	10	202	0.0	1026.1	0	0.000	0.0
20110407 03:50	10.1	10.1	10.1	80	6.8	3	8	202	0.0	1026.0	0	0.000	0.0
20110407 03:55	10.1	10.1	10.1	80	6.8	3	6	202	0.0	1026.0	0	0.000	0.0
20110407 04:00	10.0	10.0	10.0	81	6.9	3	5	202	0.0	1026.0	0	0.025	0.0
20110407 04:05	9.9	9.9	9.9	81	6.8	3	6	202	0.0	1026.0	0	0.000	0.0
20110407 04:10	9.8	9.8	9.8	81	6.7	3	8	202	0.0	1026.0	0	0.000	0.0
20110407 04:15	9.8	9.8	9.8	81	6.7	5	8	202	0.0	1026.0	0	0.000	0.0
20110407 04:20	9.7	9.1	9.7	81	6.6	6	10	202	0.0	1026.0	0	0.000	0.0
20110407 04:25	9.7	9.0	9.7	81	6.6	6	10	202	0.0	1025.9	0	0.000	0.0
20110407 04:30	9.7	9.0	9.7	82	6.7	6	11	202	0.0	1025.9	0	0.000	0.0
20110407 04:35	9.6	8.9	9.6	82	6.7	6	10	202	0.0	1025.9	0	0.000	0.0
20110407 04:40	9.6	8.9	9.6	82	6.6	6	10	202	0.0	1025.9	0	0.000	0.0
20110407 04:45	9.5	8.8	9.5	82	6.6	6	11	202	0.0	1025.8	0	0.000	0.0
20110407 04:50	9.4	9.4	9.4	82	6.5	5	10	202	0.0	1025.8	0	0.000	0.0
20110407 04:55	9.4	8.7	9.4	82	6.5	6	10	202	0.0	1025.8	0	0.000	0.0
20110407 05:00	9.4	8.7	9.4	82	6.5	6	10	202	0.0	1025.9	0	0.025	0.0
20110407 05:05	9.3	9.3	9.3	82	6.4	5	8	202	0.0	1025.9	0	0.000	0.0
20110407 05:10	9.3	9.3	9.3	82	6.4	5	8	202	0.0	1025.8	0	0.000	0.0
20110407 05:15	9.2	8.5	9.2	82	6.3	6	8	202	0.0	1025.9	0	0.000	0.0
20110407 05:20	9.3	9.3	9.3	82	6.4	5	10	202	0.0	1025.8	0	0.000	0.0
20110407 05:25	9.3	9.3	9.3	82	6.4	5	10	202	0.0	1025.7	0	0.000	0.0
20110407 05:30	9.3	8.5	9.3	82	6.4	6	10	202	0.0	1025.6	0	0.000	0.0
20110407 05:35	9.3	9.3	9.3	82	6.4	5	10	180	0.0	1025.6	0	0.000	0.0
20110407 05:40	9.3	9.3	9.3	82	6.4	5	8	180	0.0	1025.6	0	0.000	0.0
20110407 05:45	9.3	9.3	9.3	82	6.4	5	8	202	0.0	1025.5	0	0.000	0.0
20110407 05:50	9.2	8.5	9.2	82	6.3	6	11	202	0.0	1025.5	0	0.000	0.0
20110407 05:55	9.2	8.0	9.2	82	6.3	8	11	202	0.0	1025.5	0	0.000	0.0
20110407 06:00	9.1	8.0	9.1	82	6.2	8	11	202	0.0	1025.5	0	0.025	0.0
20110407 06:05	9.1	8.3	9.1	82	6.1	6	11	202	0.0	1025.7	0	0.000	0.0
20110407 06:10	9.1	9.1	9.1	82	6.1	5	8	180	0.0	1025.7	0	0.000	0.0
20110407 06:15	9.0	9.0	9.0	82	6.1	3	8	180	0.0	1025.7	0	0.000	0.0
20110407 06:20	9.0	9.0	9.0	82	6.1	5	6	202	0.0	1025.7	0	0.000	0.0
20110407 06:25	9.0	9.0	9.0	82	6.1	5	8	202	0.0	1025.7	0	0.000	0.0
20110407 06:30	8.9	8.9	8.9	82	6.0	3	8	202	0.0	1025.7	-100000	0.000	0.0
20110407 06:35	8.9	8.9	8.9	82	6.0	5	8	202	0.0	1025.7	0	0.000	0.0
20110407 06:40	8.9	8.9	8.9	82	6.0	5	6	202	0.0	1025.6	0	0.000	0.0
20110407 06:45	8.9	8.9	8.9	82	6.0	2	5	202	0.0	1025.6	0	0.000	0.0
20110407 06:50	8.8	8.8	8.8	82	5.9	3	5	202	0.0	1025.5	5	0.000	0.0
20110407 06:55	8.8	8.8	8.8	82	5.9	3	6	202	0.0	1025.4	9	0.000	0.0
20110407 07:00	8.8	8.8	8.8	83	6.1	5	8	180	0.0	1025.5	13	0.000	0.0
20110407 07:05	8.8	8.8	8.8	83	6.1	3	6	180	0.0	1025.8	18	0.000	0.0
20110407 07:10	8.8	8.8	8.8	83	6.1	5	8	202	0.0	1025.7	22	0.000	0.0
20110407 07:15	8.8	8.0	8.8	83	6.1	6	10	202	0.0	1025.7	27	0.000	0.0
20110407 07:20	8.9	8.1	8.9	82	6.0	6	11	202	0.0	1025.7	31	0.000	0.0
20110407 07:25	9.0	9.0	9.0	82	6.1	5	10	180	0.0	1025.7	36	0.000	0.0
20110407 07:30	9.1	8.3	9.1	82	6.1	6	11	202	0.0	1025.7	41	0.000	0.0
20110407 07:35	9.2	8.0	9.2	82	6.3	8	11	202	0.0	1025.7	46	0.000	0.0
20110407 07:40	9.2	8.1	9.2	82	6.3	8	13	202	0.0	1025.7	49	0.000	0.0
20110407 07:45	9.3	8.2	9.3	81	6.2	8	14	202	0.0	1025.6	54	0.000	0.0
20110407 07:50	9.4	8.7	9.4	81	6.3	6	13	202	0.0	1025.6	58	0.000	0.0
20110407 07:55	9.5	8.8	9.5	81	6.4	6	11	202	0.0	1025.5	64	0.000	0.0
20110407 08:00	9.6	8.9	9.6	81	6.5	6	10	202	0.0	1025.5	82	0.025	0.0
20110407 08:05	9.8	9.2	9.8	81	6.7	6	11	202	0.0	1025.6	120	0.000	0.0
20110407 08:10	10.1	10.1	10.1	80	6.8	6	11	225	0.0	1025.6	142	0.000	0.0
20110407 08:15	10.3	10.3	10.3	79	6.8	6	10	202	0.0	1025.5	150	0.000	0.2
20110407 08:20	10.6	10.6	10.6	78	6.9	5	11	202	0.0	1025.5	157	0.000	0.5
20110407 08:25	10.8	10.8	10.8	78	7.1	6	11	202	0.0	1025.5	138	0.000	0.5
20110407 08:30	10.9	10.9	10.9	77	7.0	6	11	202	0.0	1025.4	155	0.000	0.6
20110407 08:35	11.1	11.1	11.1	77	7.2	6	11	202	0.0	1025.4	167	0.000	0.6
20110407 08:40	11.2	11.2	11.2	77	7.3	8	13	202	0.0	1025.3	167	0.000	0.7
20110407 08:45	11.3	11.3	11.3	77	7.4	8	14	202	0.0	1025.3	177	0.000	0.8
20110407 08:50	11.6	11.6	11.6	77	7.7	5	10	225	0.0	1025.1	100	0.000	0.8
20110407 08:55	11.8	11.8	11.8	78	8.1	5	8	225	0.0	1025.1	87	0.000	0.8
20110407 09:00	12.1	12.1	12.1	77	8.1	6	11	202	0.0	1025.1	86	0.076	0.9
20110407 09:05	12.3	12.3	12.3	76	8.2	8	11	202	0.0	1025.2	85	0.000	0.9
20110407 09:10	12.7	12.7	12.7	75	8.3	6	11	202	0.0	1025.1	84	0.000	1.0
20110407 09:15	13.0	13.0	13.0	74	8.5	6	10	248	0.0	1024.9	81	0.000	1.1
20110407 09:20	13.3	13.3	13.3	72	8.4	6	11	225	0.0	1024.9	77	0.000	1.1
20110407 09:25	13.6	13.6	13.6	71	8.4	5	11	202	0.0	1024.9	76	0.000	1.2
20110407 09:30	13.9	13.9	13.9	70	8.5	6	10	202	0.0	1024.7	77	0.000	1.2
20110407 09:35	14.2	14.2	14.2	69	8.6	6	10	202	0.0	1024.8	79	0.000	1.3
20110407 09:40	14.4	14.4	14.4	69	8.8	5	10	225	0.0	1024.7	88	0.000	1.4
20110407 09:45	14.7	14.7	14.7	67	8.6	6	11	202	0.0	1024.7	96	0.000	1.4
20110407 09:50	15.0	15.0	15.0	66	8.7	6	11	248	0.0	1024.5	90	0.000	1.4
20110407 09:55	15.3	15.3	15.3	66	9.0	6	11	202	0.0	1024.5	97	0.000	1.6
20110407 10:00	15.6	15.6	15.6	63	8.5	5	10	225	0.0	1024.4	99	0.076	1.6
20110407 10:05	15.8	15.8	15.8	63	8.8	6	11	225	0.0	1024.2	97	0.000	1.7
20110407 10:10	16.1	16.1	16.1	62	8.8	10	16	225	0.0	1024.1	102	0.000	1.8
20110407 10:15	16.3	16.3	16.3	62	9.0	8	14	225	0.0	1024.2	101	0.000	1.9
20110407 10:20	16.5	16.5	16.5	59	8.5	10	16	248	0.0	1024.1	99	0.000	1.9
20110407 10:25	16.7	16.7	16.7	60	8.9	10	16	248	0.0	1024.0	98	0.000	2.0
20110407 10:30	16.9	16.9	16.9	60	9.1	6	11	248	0.0	1024.0	100	0.000	2.1
20110407 10:35	17.2	17.2	17.2	59	9.1	8	16	270	0.0	1023.9	116	0.000	2.2
20110407 10:40	17.6	17.6	17.6	57	8.9	10	18	225	0.0	1023.7	136	0.000	2.3
20110407 10:45	17.8	17.8	17.8	56	8.9	11	19	248	0.0	1023.7	136	0.000	2.2
20110407 10:50	17.9	17.9	17.9	56	9.0	10	16	248	0.0	1023.7	115	0.000	2.2
20110407 10:55	17.9	17.9	17.9	56	9.0	8	14	225	0.0	1023.8	107	0.000	2.3
20110407 11:00	18.2	18.2	18.2	56	9.2	6	14	270	0.0	1023.7	125	0.102	2.4
20110407 11:05	18.4	18.4	18.4	54	8.9	8	16	270	0.0	1023.8	577	0.000	2.6
20110407 11:10	18.6	18.6	18.6	54	9.1	8	16	248	0.0	1023.7	530	0.000	3.8
20110407 11:15	18.8	18.8	18.8	55	9.6	10	18	270	0.0	1023.5	586	0.000	4.3
20110407 11:20	19.1	19.1	19.1	54	9.6	10	18	248	0.0	1023.5	604	0.000	4.5
20110407 11:25	19.4	19.4	19.4	53	9.6	11	18	270	0.0	1023.2	586	0.000	4.7
20110407 11:30	19.6	19.6	19.6	53	9.8	13	19	248	0.0	1023.2	656	0.000	5.0
20110407 11:35	19.8	19.8	19.8	52	9.6	11	21	248	0.0	1023.0	655	0.000	4.9
20110407 11:40	20.0	20.0	20.0	52	9.8	10	19	270	0.0	1023.0	644	0.000	5.0
20110407 11:45	20.3	20.3	20.3	51	9.8	11	21	270	0.0	1022.8	661	0.000	5.1
20110407 11:50	20.4	20.4	20.4	50	9.7	10	21	248	0.0	1022.7	689	0.000	5.4
20110407 11:55	20.7	20.7	20.7	50	9.9	10	18	270	0.0	1022.7	687	0.000	5.5
20110407 12:00	20.9	20.9	20.9	48	9.5	10	19	270	0.0	1022.6	697	0.432	5.6
20110407 12:05	21.2	21.2	21.2	47	9.4	13	23	248	0.0	1022.6	698	0.000	5.7
20110407 12:10	21.3	21.3	21.3	46	9.2	14	23	270	0.0	1022.6	705	0.000	5.8
20110407 12:15	21.6	21.6	21.6	47	9.8	11	21	270	0.0	1022.4	710	0.000	5.9
20110407 12:20	21.7	21.7	21.7	47	9.9	11	21	270	0.0	1022.4	716	0.000	6.1
20110407 12:25	21.9	21.9	21.9	47	10.1	11	21	270	0.0	1022.3	719	0.000	6.1
20110407 12:30	22.2	22.2	22.2	45	9.7	11	21	270	0.0	1022.3	721	0.000	6.2
20110407 12:35	22.3	22.3	22.3	44	9.4	11	19	248	0.0	1022.0	725	0.000	6.3
20110407 12:40	22.5	22.5	22.5	45	10.0	10	24	270	0.0	1021.9	729	0.000	6.4
20110407 12:45	22.8	22.8	22.8	41	8.8	13	24	248	0.0	1021.7	734	0.000	6.4
20110407 12:50	22.9	22.9	22.9	40	8.6	14	24	270	0.0	1021.7	734	0.000	6.4
20110407 12:55	23.0	23.0	23.0	41	9.0	14	23	292	0.0	1021.5	736	0.000	6.4
20110407 13:00	23.2	23.2	23.2	41	9.2	14	26	270	0.0	1021.4	736	0.533	6.4
20110407 13:05	23.5	23.5	23.5	40	9.1	13	24	270	0.0	1021.4	738	0.000	6.5
20110407 13:10	23.7	23.7	23.7	39	8.9	16	24	292	0.0	1021.2	743	0.000	6.5
20110407 13:15	23.8	23.8	23.8	40	9.4	14	26	270	0.0	1021.1	743	0.000	6.6
20110407 13:20	23.8	23.8	23.8	36	7.8	16	23	270	0.0	1021.0	742	0.000	6.6
20110407 13:25	23.9	23.9	25.2	38	8.7	16	29	270	0.0	1020.8	744	0.000	6.6
20110407 13:30	23.9	23.9	25.2	36	7.9	18	31	270	0.0	1020.6	742	0.000	6.6
20110407 13:35	23.8	23.8	23.8	36	7.8	21	32	270	0.0	1020.6	741	0.000	6.6
20110407 13:40	23.9	23.9	25.2	36	7.9	18	31	270	0.0	1020.6	739	0.000	6.6
20110407 13:45	24.1	24.1	25.3	38	8.8	14	26	270	0.0	1020.6	736	0.000	6.5
20110407 13:50	24.1	24.1	25.3	37	8.5	18	29	270	0.0	1020.6	735	0.000	6.5
20110407 13:55	24.2	24.2	25.3	36	8.2	18	31	270	0.0	1020.5	732	0.000	6.4
20110407 14:00	24.2	24.2	25.3	37	8.6	18	29	270	0.0	1020.1	729	0.610	6.3
20110407 14:05	24.4	24.4	25.4	38	9.1	18	37	270	0.0	1020.1	726	0.000	6.3
20110407 14:10	24.6	24.6	25.4	35	8.1	18	37	270	0.0	1020.1	722	0.000	6.2
20110407 14:15	24.7	24.7	25.4	36	8.6	21	35	270	0.0	1020.1	717	0.000	6.1
20110407 14:20	24.8	24.8	25.5	37	9.1	16	29	270	0.0	1019.8	714	0.000	6.0
20110407 14:25	24.9	24.9	25.5	36	8.8	19	34	292	0.0	1019.9	711	0.000	6.0
20110407 14:30	25.1	25.1	25.6	37	9.3	16	27	292	0.0	1019.9	707	0.000	5.9
20110407 14:35	25.2	25.2	25.7	38	9.8	16	29	292	0.0	1019.8	700	0.000	5.8
20110407 14:40	25.3	25.3	25.6	34	8.3	16	32	292	0.0	1019.9	696	0.000	5.7
20110407 14:45	25.2	25.2	25.6	33	7.8	19	34	292	0.0	1019.8	692	0.000	5.6
20110407 14:50	25.2	25.2	25.6	34	8.2	21	32	292	0.0	1019.8	683	0.000	5.5
20110407 14:55	25.2	25.2	25.6	35	8.6	19	32	292	0.0	1019.7	673	0.000	5.3
20110407 15:00	25.1	25.1	25.5	32	7.2	23	37	270	0.0	1019.7	670	0.635	5.2
20110407 15:05	25.2	25.2	25.6	36	9.0	19	35	270	0.0	1019.7	663	0.000	5.0
20110407 15:10	25.1	25.1	25.6	36	8.9	21	35	270	0.0	1019.7	652	0.000	4.9
20110407 15:15	25.1	25.1	25.6	35	8.6	19	39	292	0.0	1019.6	642	0.000	4.7
20110407 15:20	25.1	25.1	25.6	36	8.9	21	35	292	0.0	1019.8	634	0.000	4.5
20110407 15:25	25.0	25.0	25.5	35	8.5	24	37	292	0.0	1020.1	627	0.000	4.4
20110407 15:30	24.8	24.8	25.4	34	7.8	29	47	292	0.0	1020.4	618	0.000	4.2
20110407 15:35	24.7	24.7	25.5	37	9.0	26	39	292	0.0	1020.0	600	0.000	4.0
20110407 15:40	24.6	24.6	25.4	38	9.3	23	39	292	0.0	1019.9	592	0.000	3.9
20110407 15:45	24.4	24.4	25.4	39	9.6	24	35	292	0.0	1020.0	582	0.000	3.7
20110407 15:50	24.4	24.4	25.4	39	9.6	23	37	270	0.0	1019.5	570	0.000	3.6
20110407 15:55	24.5	24.5	25.5	39	9.6	23	37	270	0.0	1019.4	563	0.000	3.5
20110407 16:00	24.4	24.4	25.4	38	9.2	26	39	270	0.0	1019.5	552	0.610	3.3
20110407 16:05	24.5	24.5	25.5	39	9.6	19	37	292	0.0	1019.5	538	0.000	3.2
20110407 16:10	24.7	24.7	25.6	40	10.2	18	29	270	0.0	1019.5	531	0.000	3.1
20110407 16:15	24.7	24.7	25.5	38	9.4	24	40	270	0.0	1019.4	520	0.000	3.0
20110407 16:20	24.6	24.6	25.5	40	10.1	21	32	270	0.0	1019.2	513	0.000	2.9
20110407 16:25	24.6	24.6	25.5	39	9.7	24	35	292	0.0	1019.2	511	0.000	2.8
20110407 16:30	24.4	24.4	25.5	40	10.0	24	37	270	0.0	1019.2	492	0.000	2.6
20110407 16:35	24.5	24.5	25.5	40	10.0	23	32	292	0.0	1019.3	479	0.000	2.4
20110407 16:40	24.6	24.6	25.5	40	10.1	18	35	270	0.0	1019.2	461	0.000	2.3
20110407 16:45	24.6	24.6	25.5	40	10.1	23	43	270	0.0	1019.1	481	0.000	2.2
20110407 16:50	24.4	24.4	25.5	41	10.3	24	34	270	0.0	1019.2	459	0.000	2.1
20110407 16:55	24.2	24.2	25.4	42	10.4	21	32	270	0.0	1019.0	207	0.000	1.4
20110407 17:00	23.8	23.8	23.8	42	10.1	19	35	292	0.0	1018.8	187	0.483	1.3
20110407 17:05	23.5	23.5	23.5	43	10.2	23	32	270	0.0	1019.0	193	0.000	1.2
20110407 17:10	23.4	23.4	23.4	44	10.4	23	35	292	0.0	1018.8	252	0.000	1.1
20110407 17:15	23.4	23.4	23.4	44	10.4	21	35	270	0.0	1018.8	250	0.000	1.1
20110407 17:20	23.4	23.4	23.4	45	10.8	21	35	292	0.0	1018.7	305	0.000	1.1
20110407 17:25	23.7	23.7	23.7	46	11.4	18	32	292	0.0	1018.8	343	0.000	1.1
20110407 17:30	23.7	23.7	23.7	45	11.0	18	32	292	0.0	1018.8	125	0.000	0.7
20110407 17:35	23.3	23.3	23.3	45	10.7	19	31	292	0.0	1018.8	104	0.000	0.6
20110407 17:40	23.1	23.1	23.1	45	10.5	19	34	270	0.0	1018.8	110	0.000	0.6
20110407 17:45	22.9	22.9	22.9	47	11.0	16	27	292	0.0	1019.0	109	0.000	0.6
20110407 17:50	22.8	22.8	22.8	48	11.2	11	24	292	0.0	1019.0	109	0.000	0.5
20110407 17:55	22.6	22.6	22.6	48	11.0	13	26	292	0.0	1019.0	91	0.000	0.3
20110407 18:00	22.4	22.4	22.4	49	11.1	10	23	315	0.0	1019.0	93	0.254	0.0
20110407 18:05	22.3	22.3	22.3	49	11.0	11	23	315	0.0	1019.0	87	0.000	0.0
20110407 18:10	22.1	22.1	22.1	49	10.9	10	21	315	0.0	1019.0	69	0.000	0.0
20110407 18:15	22.0	22.0	22.0	50	11.1	10	19	315	0.0	1019.0	66	0.000	0.0
20110407 18:20	21.8	21.8	21.8	49	10.6	13	27	292	0.0	1019.1	64	0.000	0.0
20110407 18:25	21.8	21.8	21.8	49	10.6	14	23	315	0.0	1019.2	54	0.000	0.0
20110407 18:30	21.8	21.8	21.8	50	10.9	16	26	315	0.0	1019.1	70	0.000	0.0
20110407 18:35	21.6	21.6	21.6	47	9.8	23	39	315	0.0	1019.2	85	0.000	0.0
20110407 18:40	21.6	21.6	21.6	48	10.1	18	34	292	0.0	1019.2	92	0.000	0.0
20110407 18:45	21.6	21.6	21.6	48	10.1	14	27	292	0.0	1019.3	98	0.000	0.0
20110407 18:50	21.4	21.4	21.4	50	10.6	13	23	315	0.0	1019.4	80	0.000	0.0
20110407 18:55	21.3	21.3	21.3	49	10.1	11	26	315	0.0	1019.4	70	0.000	0.0
20110407 19:00	21.1	21.1	21.1	49	10.0	11	23	292	0.0	1019.3	62	0.152	0.0
20110407 19:05	20.9	20.9	20.9	50	10.1	8	19	315	0.0	1019.4	50	0.000	0.0
20110407 19:10	20.8	20.8	20.8	50	10.0	8	21	292	0.0	1019.4	40	0.000	0.0
20110407 19:15	20.6	20.6	20.6	51	10.1	11	24	315	0.0	1019.4	39	0.000	0.0
20110407 19:20	20.3	20.3	20.3	50	9.6	13	26	292	0.0	1019.4	33	0.000	0.0
20110407 19:25	20.2	20.2	20.2	51	9.8	13	21	292	0.0	1019.3	27	0.000	0.0
20110407 19:30	20.1	20.1	20.1	52	9.9	13	23	292	0.0	1019.5	21	0.000	0.0
20110407 19:35	19.9	19.9	19.9	52	9.8	10	19	292	0.0	1019.5	15	0.000	0.0
20110407 19:40	19.7	19.7	19.7	53	9.9	10	19	292	0.0	1019.5	11	0.000	0.0
20110407 19:45	19.6	19.6	19.6	53	9.7	10	18	292	0.0	1019.5	6	0.000	0.0
20110407 19:50	19.3	19.3	19.3	54	9.8	10	18	292	0.0	1019.7	1	0.000	0.0
20110407 19:55	19.1	19.1	19.1	54	9.6	10	18	292	0.0	1019.6	0	0.000	0.0
20110407 20:00	18.9	18.9	18.9	55	9.7	10	18	292	0.0	1019.9	0	0.102	0.0
20110407 20:05	18.8	18.8	18.8	55	9.6	10	14	292	0.0	1019.6	0	0.000	0.0
20110407 20:10	18.7	18.7	18.7	55	9.5	13	27	292	0.0	1019.6	0	0.000	0.0
20110407 20:15	18.6	18.6	18.6	56	9.7	10	19	292	0.0	1019.6	0	0.000	0.0
20110407 20:20	18.4	18.4	18.4	56	9.5	10	19	292	0.0	1019.8	0	0.000	0.0
20110407 20:25	18.3	18.3	18.3	57	9.6	8	16	292	0.0	1019.9	0	0.000	0.0
20110407 20:30	18.1	18.1	18.1	58	9.7	8	16	270	0.0	1019.8	0	0.000	0.0
20110407 20:35	17.9	17.9	17.9	58	9.6	10	16	270	0.0	1019.9	0	0.000	0.0
20110407 20:40	17.9	17.9	17.9	58	9.5	10	18	270	0.0	1020.0	0	0.000	0.0
20110407 20:45	17.8	17.8	17.8	59	9.7	11	18	292	0.0	1020.0	0	0.000	0.0
20110407 20:50	17.6	17.6	17.6	59	9.5	13	19	292	0.0	1020.1	0	0.000	0.0
20110407 20:55	17.5	17.5	17.5	60	9.6	13	23	292	0.0	1020.2	0	0.000	0.0
20110407 21:00	17.6	17.6	17.6	59	9.4	13	23	292	0.0	1020.2	0	0.076	0.0
20110407 21:05	17.7	17.7	17.7	58	9.3	14	23	292	0.0	1019.9	0	0.000	0.0
20110407 21:10	17.7	17.7	17.7	58	9.3	14	26	292	0.0	1019.9	0	0.000	0.0
20110407 21:15	17.8	17.8	17.8	58	9.5	14	23	292	0.0	1019.9	0	0.000	0.0
20110407 21:20	17.9	17.9	17.9	58	9.6	13	21	292	0.0	1019.9	0	0.000	0.0
20110407 21:25	17.9	17.9	17.9	58	9.6	13	21	292	0.0	1020.0	0	0.000	0.0
20110407 21:30	17.9	17.9	17.9	58	9.5	13	19	292	0.0	1019.9	0	0.000	0.0
20110407 21:35	17.8	17.8	17.8	58	9.4	14	21	292	0.0	1020.1	0	0.000	0.0
20110407 21:40	17.8	17.8	17.8	59	9.7	13	19	292	0.0	1020.1	0	0.000	0.0
20110407 21:45	17.7	17.7	17.7	59	9.6	11	18	270	0.0	1020.0	0	0.000	0.0
20110407 21:50	17.6	17.6	17.6	59	9.4	10	19	270	0.0	1020.0	0	0.000	0.0
20110407 21:55	17.4	17.4	17.4	60	9.6	10	19	270	0.0	1020.0	0	0.000	0.0
20110407 22:00	17.4	17.4	17.4	60	9.5	10	19	270	0.0	1020.2	0	0.076	0.0
20110407 22:05	17.3	17.3	17.3	60	9.5	13	21	270	0.0	1019.8	0	0.000	0.0
20110407 22:10	17.3	17.3	17.3	60	9.5	11	18	270	0.0	1019.8	0	0.000	0.0
20110407 22:15	17.3	17.3	17.3	60	9.4	10	16	270	0.0	1019.8	0	0.000	0.0
20110407 22:20	17.2	17.2	17.2	61	9.6	8	14	270	0.0	1019.8	0	0.000	0.0
20110407 22:25	17.0	17.0	17.0	61	9.4	8	13	270	0.0	1019.8	0	0.000	0.0
20110407 22:30	16.8	16.8	16.8	62	9.5	8	14	270	0.0	1019.9	0	0.000	0.0
20110407 22:35	16.8	16.8	16.8	62	9.5	8	16	270	0.0	1019.9	0	0.000	0.0
20110407 22:40	16.7	16.7	16.7	62	9.4	8	16	270	0.0	1019.9	0	0.000	0.0
20110407 22:45	16.7	16.7	16.7	62	9.3	10	16	270	0.0	1019.8	0	0.000	0.0
20110407 22:50	16.6	16.6	16.6	62	9.2	10	18	270	0.0	1019.8	0	0.000	0.0
20110407 22:55	16.6	16.6	16.6	62	9.2	11	18	270	0.0	1019.9	0	0.000	0.0
20110407 23:00	16.6	16.6	16.6	62	9.2	11	19	270	0.0	1019.9	0	0.076	0.0
20110407 23:05	16.5	16.5	16.5	62	9.2	10	18	270	0.0	1019.5	0	0.000	0.0
20110407 23:10	16.4	16.4	16.4	62	9.1	8	19	270	0.0	1019.6	0	0.000	0.0
20110407 23:15	16.4	16.4	16.4	62	9.1	10	18	270	0.0	1019.7	0	0.000	0.0
20110407 23:20	16.4	16.4	16.4	62	9.1	11	21	270	0.0	1019.8	0	0.000	0.0
20110407 23:25	16.3	16.3	16.3	62	9.0	11	18	292	0.0	1019.8	0	0.000	0.0
20110407 23:30	16.2	16.2	16.2	63	9.1	10	16	292	0.0	1019.8	0	0.000	0.0
20110407 23:35	15.9	15.9	15.9	64	9.1	10	19	292	0.0	1019.8	0	0.000	0.0
20110407 23:40	15.8	15.8	15.8	65	9.2	10	16	292	0.0	1019.8	0	0.000	0.0
20110407 23:45	15.6	15.6	15.6	65	9.0	10	16	292	0.0	1019.8	0	0.000	0.0
20110407 23:50	15.5	15.5	15.5	66	9.2	11	18	292	0.0	1019.8	0	0.000	0.0
20110407 23:55	15.4	15.4	15.4	66	9.1	13	19	292	0.0	1019.8	0	0.000	0.0



Please note the license to use and transfer of this data:
http://creativecommons.org/licenses/by-nc-sa/3.0/deed.en

Bitte beachten sie die Lizenz zur Verwertung und Weitergabe der Daten:
http://creativecommons.org/licenses/by-nc-sa/3.0/deed.de

zurück zur Übersicht der Archivdaten (Monats und Tagesdaten)

Cookies helfen bei der Bereitstellung von Inhalten. Durch die Nutzung dieser Seiten erklärst du dich damit einverstanden, dass Cookies auf deinem Rechner gespeichert werden. Weitere Information